Location: *
(51.5000°N, 0.1100°W)
Time: 16:10:25
(UTC+00:00)

ATLAS CENTAUR R/B - Pass Details

Date: 25 May 2024
Orbit: 442 x 588 km, 64.6° (Epoch: 16 June)

Event Time Altitude Azimuth Distance (km) Brightness Sun altitude
Exits shadow 02:46:17 - 172° (S) 2,126 3.9 -8.6°
Reaches altitude 10° 02:48:05 10° 155° (SSE) 1,566 3.4 -8.4°
Maximum altitude 02:50:18 16° 115° (ESE) 1,255 3.3 -8.2°
Drops below altitude 10° 02:52:32 10° 76° (ENE) 1,598 4.6 -8.0°
Sets 02:55:16 0° 54° (NE) 2,501 6.6 -7.7°
